AirNav   Pilot Hours Calculator
 
 432 users online  

8PS5 HMC Hanger Heliport
Hershey, Pennsylvania, USA

GOING TO HERSHEY?


FAA INFORMATION EFFECTIVE 26 MARCH 2020

Location

FAA Identifier: 8PS5
Lat/Long: 40-15-42.9000N 076-41-04.9500W
40-15.715000N 076-41.082500W
40.2619167,-76.6847083
(estimated)
Elevation: 421 ft. / 128 m (estimated)
Variation: 10W (1985)
From city: 2 miles SW of HERSHEY, PA
Time zone: UTC -4 (UTC -5 during Standard Time)
Zip code: 17036

Heliport Operations

Heliport use: Private use, MEDICAL USE
Activation date: 04/1988
Control tower: no
ARTCC: NEW YORK CENTER
FSS: WILLIAMSPORT FLIGHT SERVICE STATION
Attendance: CONTINUOUS
Wind indicator: lighted
Segmented circle: no
Lights: ACTVT PERIMETER LGTS - 123.050.

Heliport Communications

UNICOM: 123.05
WX ASOS at MDT (5 nm SW): 118.8 (717-944-1372)
WX ASOS at CXY (8 nm W): PHONE 717-770-0880
WX ASOS at MUI (12 nm NE): 124.175 (717-861-2536)
WX AWOS-2 at 9D4 (17 nm E): 118.45 (717-866-2906)
WX ASOS at LNS (20 nm SE): 125.675 (717-569-8860)

Nearby radio navigation aids

VOR radial/distance  VOR name  Freq  Var
HARr108/17.8HARRISBURG VORTAC112.5010W
RAVr204/17.9RAVINE VORTAC114.6011W
LRPr304/19.9LANCASTER VOR/DME117.3009W
SEGr172/33.0SELINSGROVE VOR/DME110.4008W

 
NDB name  Hdg/Dist  Freq  Var  ID
ENOLA096/9.920411WMD -- -..
BELLGROVE220/12.132810WBZJ -... --.. .---

Heliport Services

Fuel available: A

Runway Information

Helipad H1

Dimensions: 80 x 80 ft. / 24 x 24 m
Surface: concrete
Latitude: 40-15.715000N
Longitude: 076-41.082500W
Elevation: 421.0 ft.
Traffic pattern: leftleft

Heliport Ownership and Management from official FAA records

Ownership: Privately-owned
Owner: THE MILTON S HERSHEY MED CNTR
BOX 850 500 UNIVERSITY DRIVE
HERSHEY, PA 17033
Phone 717-531-7365
Manager: TIM KARGES
BOX 850 500 UNIVERSITY DRIVE
HERSHEY, PA 17033
Phone 717-531-5879

Heliport Operational Statistics

Aircraft based on the field: 2
Helicopters: 2
    

Additional Remarks

A40 PERIMETER LGTS
40 FT CIRC TLOF MARKED.
FOR CD CTC HARRISBURG APCH AT 800-932-0712.

Instrument Procedures

There are no published instrument procedures at 8PS5.

Some nearby airports with instrument procedures:

58N - Reigle Field Airport (5 nm E)
KMDT - Harrisburg International Airport (5 nm SW)
KCXY - Capital City Airport (8 nm W)
N71 - Donegal Springs Airpark (11 nm SE)
KMUI - Muir Army Airfield (Fort Indiantown Gap) (12 nm NE)
08N - Keller Brothers Airport (16 nm E)
9D4 - Deck Airport (17 nm E)
74N - Bendigo Airport (19 nm N)
KLNS - Lancaster Airport (20 nm SE)
 
Loc | Ops | Rwys | IFR | FBO | Links
Com | Nav | Svcs | Stats | Notes
Area around 8PS5 (HMC Hanger Heliport)
 
Road maps at: MapQuest Bing Google
 
Aerial photo
No photo
 
Sectional chart

 
Airport distance calculator
Flying to HMC Hanger Heliport? Find the distance to fly.

From to 8PS5

Sunrise and sunset
Times for 06-Apr-2020
 Local
(UTC-4)
 Zulu
(UTC)
Morning civil twilight06:1410:14
Sunrise06:4210:42
Sunset19:3623:36
Evening civil twilight20:0400:04

Current date and time
Zulu (UTC)  06-Apr-2020 11:19:16
Local (UTC-4)  06-Apr-2020 07:19:16
 
METAR
KMDT 
5nm SW 
061056Z 32005KT 10SM SCT035 08/01 A3008 RMK AO2 SLP188 T00830006
KCXY 
8nm W 
061056Z VRB06KT 10SM BKN120 10/00 A3009 RMK AO2 SLP191 T01000000
KMUI 
11nm NE 
061056Z AUTO 00000KT 10SM FEW120 07/00 A3008 RMK AO2 SLP190 T00660003
KLNS 
20nm SE 
061053Z 01004KT 10SM CLR 07/02 A3007 RMK AO2 SLP181 T00720022
TAF
KMDT 
5nm SW 
060909Z 0609/0706 36008KT P6SM FEW040 FM061500 33008KT P6SM FEW250 FM062200 30004KT P6SM SCT200 FM070500 VRB02KT P6SM BKN150
KMUI 
11nm NE 
051450Z 0514/0617 VRB06KT 8000 BR SCT050 QNH3000INS BECMG 0515/0516 24006KT 9999 NSW BKN050 QNH2996INS BECMG 0605/0606 VRB06KT 6000 BR FEW050 QNH3000INS BECMG 0612/0613 35006KT 9999 NSW SKC QNH3009INS TX19/0521Z TN12/0514Z LAST NO AMDS AFT 0514 NEXT 0611
KLNS 
20nm SE 
060909Z 0609/0706 35008KT P6SM FEW050 FM061500 33008KT P6SM FEW250 FM062200 30004KT P6SM SCT200 FM070500 VRB02KT P6SM BKN150
NOTAMs
Click for the latest NOTAMs
NOTAMs are issued by the DoD/FAA and will open in a separate window not controlled by AirNav.

 

 
 

Would you like to see your business listed on this page?

 If your business provides an interesting product or service to pilots, flight crews, aircraft, or users of the HMC Hanger Heliport, you should consider listing it here.  To start the listing process, click on the button below
 
Add a business
 

Other Pages about HMC Hanger Heliport

Update a link
 
Copyright © AirNav, LLC. All rights reserved. Privacy Policy  Contact